Theta_e
310 310 310 310 310 310 310 311 311 311 311 312 312 312 313 313 314 317 324 331 332 331 329 326 326 325 327 325 317 323 321 322 320 313 312 312 309 311 309 312 311 309 306 307 306 302 298 314 313 307 312 313 311 310
309 309 309 309 309 309 310 310 310 310 310 311 311 312 313 313 313 314 324 336 333 330 333 334 332 332 330 328 324 328 324 324 325 319 317 316 312 313 311 305 316 308 313 310 310 310 317 317 315 317 315 311 312 310
310 310 309 309 309 309 309 310 310 310 310 310 311 311 312 313 313 314 323 327 334 333 331 329 325 332 335 334 337 322 324 327 329 331 321 319 311 316 308 311 313 315 317 314 313 313 313 315 315 315 315 313 313 313
309 309 309 309 309 309 309 310 309 310 310 310 310 312 312 313 313 313 322 329 328 330 323 326 331 328 333 336 334 334 333 333 333 326 323 320 315 319 315 314 313 315 315 313 310 310 311 311 313 313 313 313 312 312
308 309 309 309 309 309 309 309 309 309 309 310 311 312 312 312 312 316 322 324 327 329 321 322 329 329 331 333 332 333 333 330 327 321 320 316 319 317 318 313 310 313 314 309 307 311 312 309 313 312 311 311 312 310
308 308 308 308 308 309 309 308 308 309 309 310 311 312 312 311 309 321 326 328 326 328 323 315 328 327 327 331 330 325 328 327 326 322 319 320 320 318 311 310 313 313 316 317 313 315 312 313 314 313 312 313 313 314
307 306 305 306 306 307 308 308 309 309 309 310 310 310 310 310 317 321 324 326 319 332 322 314 316 326 326 326 326 326 327 327 325 324 321 321 319 317 314 309 315 316 317 317 317 315 312 313 312 314 315 315 313 316
305 305 305 305 306 307 307 308 308 309 309 309 309 310 310 309 310 318 327 311 322 329 326 313 314 320 327 321 320 328 323 324 326 324 323 320 318 318 311 315 316 317 318 318 318 317 317 317 317 315 317 316 314 313
305 304 304 306 307 307 307 308 308 308 308 309 309 310 315 317 319 327 315 315 329 326 317 319 311 313 324 324 326 323 325 315 325 321 321 318 318 312 315 315 316 318 318 318 318 317 316 316 316 316 316 315 314 313
304 304 306 307 307 307 307 307 308 308 309 309 313 316 314 323 316 320 324 324 324 325 322 314 322 314 321 321 319 319 322 316 313 316 321 315 315 318 318 319 322 320 320 320 316 313 314 312 311 313 313 314 314 314
305 306 307 307 307 307 307 307 308 308 309 321 319 317 325 315 325 323 318 314 315 312 318 317 318 317 323 315 316 319 314 317 308 313 313 312 312 315 318 316 317 316 316 315 315 314 314 314 313 313 313 314 313 313
305 306 306 307 307 307 307 307 307 312 319 314 317 320 326 321 318 313 312 316 314 312 319 317 318 322 321 325 316 318 312 316 304 320 312 308 314 318 317 315 316 315 315 313 314 313 315 314 314 314 314 314 314 315
305 306 306 306 306 307 307 307 307 307 308 323 321 317 318 315 304 307 305 310 311 317 317 317 315 320 321 321 318 314 307 309 320 311 307 310 317 318 318 317 315 316 315 315 314 315 316 316 317 315 314 316 316 316
305 305 305 305 306 306 307 307 308 309 318 321 312 300 309 308 310 312 312 315 317 318 316 318 316 317 320 314 317 307 314 316 305 303 303 310 317 319 318 317 315 314 314 314 315 315 316 316 317 318 319 319 318 317
305 305 305 306 306 306 307 307 307 315 324 314 313 303 309 314 316 317 317 316 317 319 319 316 315 312 313 311 315 312 307 303 307 306 310 314 321 320 319 317 317 317 317 317 318 318 318 319 319 319 319 320 319 319
305 305 311 307 306 306 306 308 313 322 322 315 314 311 314 314 313 314 315 314 320 321 321 318 311 308 308 313 307 305 303 302 306 312 314 316 319 321 322 321 320 320 320 320 321 320 319 317 317 316 317 319 319 318
303 313 306 305 305 306 307 321 326 319 314 312 313 318 317 316 314 314 317 316 322 318 313 316 307 306 315 310 305 311 306 309 312 313 314 320 320 320 321 320 318 317 317 317 317 316 316 316 316 315 313 314 315 315
310 313 306 305 309 310 321 322 320 314 309 314 312 314 317 317 315 315 318 319 319 319 318 313 317 309 307 302 304 309 311 313 316 316 317 319 320 319 317 316 316 315 315 315 315 315 314 313 312 311 312 312 310 310
313 311 306 305 308 320 318 318 321 310 311 314 315 316 316 316 317 318 319 321 322 323 319 316 309 308 308 311 311 313 313 314 313 316 317 318 317 315 314 314 313 313 312 312 311 308 308 310 308 307 306 305 303 305
303 304 304 305 308 321 314 316 321 314 310 314 316 314 314 315 317 316 317 319 319 317 311 308 307 309 310 313 315 314 314 315 313 312 311 313 313 314 311 310 309 310 309 308 306 299 303 302 302 301 300 299 298 298
306 311 307 313 318 319 317 316 315 316 315 314 316 315 314 317 315 315 316 319 312 310 308 311 310 310 312 311 312 314 312 312 310 309 308 307 309 307 304 302 302 299 298 297 295 295 295 296 298 297 297 298 300 301
316 308 321 318 314 314 313 316 316 318 317 314 314 316 313 311 312 313 313 309 306 307 309 311 310 309 306 306 307 309 308 306 305 303 298 298 296 295 295 294 293 292 293 293 292 292 293 295 295 295 294 294 293 293
310 314 318 314 311 306 306 317 313 314 309 310 313 310 310 311 313 316 307 307 302 304 308 307 306 303 301 300 300 297 298 297 294 294 294 293 292 292 293 292 293 292 292 291 292 291 291 289 290 290 290 290 289 289
306 313 310 309 310 304 313 310 314 311 311 309 308 306 308 311 312 307 302 296 297 301 301 302 301 298 296 294 291 291 293 293 291 291 293 291 290 291 293 293 294 294 291 290 290 289 289 288 287 288 288 288 287 286
305 304 306 297 310 307 306 306 307 307 305 306 305 306 308 315 306 302 294 292 294 295 297 296 294 293 291 290 289 290 292 291 289 289 292 294 292 292 291 291 291 291 290 288 287 287 287 287 287 286 286 286 285 285
297 305 303 305 306 306 306 303 303 305 306 303 304 308 314 308 297 290 291 292 293 293 293 292 291 290 288 289 288 288 289 292 291 290 291 293 291 290 288 288 286 287 288 288 287 285 285 285 285 284 284 284 283 284
299 303 308 312 311 310 307 309 310 307 303 302 305 305 305 294 289 290 293 295 292 293 293 293 291 289 289 290 292 293 293 293 292 291 292 292 291 291 289 286 285 285 287 287 287 286 284 284 284 284 284 284 284 284
306 309 304 308 309 310 306 306 304 303 305 308 304 294 290 289 288 293 294 295 293 294 293 293 292 291 291 292 293 293 292 292 292 291 291 290 290 289 288 288 288 284 287 287 287 286 286 285 284 284 284 283 284 285
306 310 310 306 306 306 305 305 305 305 306 308 298 291 289 293 295 292 292 293 294 293 291 291 292 293 292 292 292 291 290 289 286 283 282 282 283 285 287 287 287 287 287 287 284 284 285 285 285 284 284 284 284 284
306 311 306 304 303 300 300 303 301 300 299 296 293 291 291 292 292 294 293 293 292 293 293 292 291 290 288 287 287 287 288 288 286 284 282 281 283 285 286 286 286 286 287 286 286 286 284 285 285 286 285 284 284 283
310 308 305 304 300 297 298 298 298 297 296 293 293 289 288 290 292 294 293 294 294 293 291 289 289 289 287 286 285 284 284 287 287 286 286 285 285 285 286 286 286 287 286 286 286 285 285 284 284 283 283 283 283 283
307 305 303 301 300 301 305 298 295 293 293 291 290 291 291 290 287 290 294 294 292 290 287 288 287 286 287 287 287 287 284 287 287 286 285 285 285 286 285 286 287 287 286 285 285 285 285 284 283 283 282 282 282 282
306 306 305 304 302 302 304 302 296 293 294 290 290 290 288 286 284 290 295 294 291 290 289 288 287 287 287 287 286 286 285 287 286 283 283 283 283 283 285 286 286 286 285 285 285 284 284 283 283 283 282 282 282 282
Wind_Speed
13 12 11 10 11 11 12 13 14 14 14 14 14 12 11 9 7 6 2 4 5 3 2 4 2 1 2 3 5 5 5 5 4 5 4 2 4 2 4 2 2 4 4 2 2 6 4 2 5 6 7 2 1 2
13 12 10 10 11 11 12 13 14 14 14 13 13 12 11 8 7 6 3 2 3 5 5 2 4 6 5 5 5 2 5 3 3 1 1 1 2 1 5 4 2 3 5 5 6 6 4 2 4 3 2 2 2 4
13 12 10 10 11 11 12 13 14 14 14 13 12 12 12 9 6 7 4 3 4 4 5 5 4 4 5 7 3 5 2 2 2 1 2 2 5 3 5 2 3 4 1 1 7 5 2 2 2 3 5 4 1 2
13 11 10 10 11 12 12 13 14 14 13 13 12 11 11 9 7 8 4 0 4 4 5 6 4 3 1 4 5 4 2 3 1 4 3 3 3 1 2 4 6 5 5 5 5 5 5 4 2 3 3 3 4 2
12 10 10 10 11 12 13 13 14 14 13 13 12 11 10 9 6 7 6 5 5 6 5 3 4 5 5 6 5 3 3 4 3 3 2 2 1 3 1 2 4 4 3 5 3 5 2 4 1 1 3 5 5 4
11 9 9 11 12 13 13 13 14 14 13 13 13 12 10 9 6 5 4 5 7 4 5 4 5 6 7 6 6 4 4 3 2 2 3 3 2 5 4 2 5 5 5 4 4 4 1 1 1 3 6 5 7 9
7 10 12 13 14 14 13 14 14 14 13 12 13 11 9 8 6 5 6 4 2 4 4 4 4 5 4 5 4 4 3 2 4 1 2 1 4 4 3 5 8 6 4 4 3 2 4 6 5 2 8 9 7 9
10 12 13 15 15 14 14 14 14 14 13 13 13 10 8 6 10 7 1 11 5 5 4 4 2 5 5 6 5 2 4 4 1 1 2 3 3 3 3 4 5 4 4 6 6 6 9 6 8 8 9 9 10 10
10 13 15 15 14 13 13 14 14 15 13 12 12 5 5 5 4 2 5 9 3 4 4 3 6 1 5 2 0 4 3 4 1 3 1 4 2 3 3 3 3 2 3 3 3 7 9 8 10 11 11 10 10 11
14 15 14 14 12 13 12 13 13 14 15 10 4 5 3 3 11 5 3 6 6 5 5 7 1 5 4 3 3 3 2 2 3 2 1 5 1 3 1 1 2 1 1 3 7 5 7 9 10 10 8 7 7 8
12 13 13 12 12 12 12 12 11 12 1 3 4 1 4 3 5 4 4 5 4 5 5 4 3 3 2 4 2 1 3 1 4 4 4 2 1 6 6 6 5 2 1 2 3 3 5 8 10 10 10 10 10 9
12 12 13 12 11 11 12 10 9 5 2 2 2 2 3 5 4 5 4 4 5 2 4 4 3 1 3 2 4 3 3 2 2 2 3 1 3 7 7 3 3 4 3 4 3 6 7 8 9 9 10 10 10 10
12 13 13 12 11 12 11 10 9 8 7 3 3 4 3 4 1 6 7 4 4 4 4 4 5 1 4 4 1 3 2 1 1 3 2 5 4 5 4 3 4 4 4 6 9 9 10 11 12 11 11 12 13 13
13 13 14 13 13 12 11 9 6 4 5 3 5 1 5 5 5 2 3 2 6 3 4 0 3 2 0 4 1 3 2 2 4 2 2 6 6 2 4 4 5 6 7 8 10 11 12 13 13 14 13 13 13 15
13 14 14 17 11 11 10 8 10 5 2 4 3 4 4 3 2 4 4 5 4 2 0 2 2 3 3 3 1 2 3 1 2 2 4 6 6 4 4 6 8 11 12 13 14 14 15 15 14 14 13 17 15 13
15 19 4 3 2 4 5 9 6 3 3 3 2 3 3 4 5 5 4 5 2 1 1 3 2 3 3 1 4 2 0 2 3 4 5 4 6 6 6 7 9 10 11 11 12 13 13 13 12 11 11 9 10 10
10 3 7 3 7 3 8 3 5 5 2 3 3 1 3 4 5 5 2 4 0 3 2 2 4 2 1 2 2 1 2 6 4 5 6 7 7 8 8 10 11 11 11 11 11 10 10 10 10 9 10 11 11 9
6 5 6 4 3 4 4 4 3 3 2 2 4 5 4 4 5 4 3 3 2 1 2 2 1 3 1 1 4 4 5 5 5 5 6 8 10 10 10 11 11 11 11 11 11 11 10 12 12 10 13 13 13 13
3 6 8 6 4 3 3 3 2 3 3 3 5 4 4 5 4 4 4 3 2 2 0 2 1 5 9 9 8 8 7 7 5 3 8 11 12 12 12 12 11 12 11 12 11 11 12 14 13 13 13 15 14 15
13 13 9 3 6 3 4 3 2 3 4 4 4 5 5 4 4 4 5 4 2 3 9 8 8 9 9 9 10 10 9 10 10 9 11 9 9 11 13 13 11 13 12 16 15 19 15 14 13 14 12 12 11 11
4 3 4 5 3 3 3 1 3 3 4 3 4 4 5 4 5 8 7 9 13 9 10 9 10 11 14 14 12 11 13 12 11 10 10 10 13 15 15 16 17 13 12 11 11 11 11 9 9 10 11 11 13 14
2 2 2 5 1 3 3 3 2 3 1 5 5 3 5 6 9 8 12 11 8 9 9 10 12 11 13 18 16 17 16 17 19 15 19 16 12 11 10 10 10 9 8 7 9 9 10 10 12 15 16 15 15 15
4 2 1 2 3 4 2 1 2 1 5 6 5 5 4 4 4 5 6 10 8 10 11 10 16 18 16 18 18 20 19 15 11 11 10 9 8 7 6 6 6 7 7 10 12 13 14 17 17 17 16 17 17 17
2 4 4 3 2 3 3 3 2 3 4 5 4 6 4 4 5 6 8 5 7 9 12 15 11 10 11 16 13 12 11 9 8 8 8 8 8 8 7 7 8 9 10 13 13 13 14 15 18 16 17 19 20 20
5 5 2 3 1 4 5 5 4 4 5 4 4 5 4 2 5 7 5 4 7 8 9 10 11 11 10 9 8 9 11 9 9 9 9 8 10 9 10 10 10 11 12 13 14 16 16 16 17 19 20 20 23 26
5 2 2 1 2 3 3 5 4 5 6 4 4 4 3 6 7 6 4 5 7 8 8 8 8 7 8 7 7 8 9 8 7 8 8 8 9 10 11 12 12 11 14 14 14 17 18 17 18 22 20 22 19 21
3 4 3 1 1 5 5 5 4 5 5 4 4 5 5 7 6 5 4 5 6 7 6 5 6 7 7 7 6 6 6 8 10 9 10 8 9 9 10 12 14 13 13 14 14 15 17 17 18 19 19 18 19 20
4 4 6 5 7 5 7 5 5 6 5 4 6 8 5 4 4 3 4 7 6 4 4 5 5 6 5 5 6 7 7 8 9 10 9 8 8 9 11 9 10 9 11 12 13 15 16 17 18 20 20 19 18 18
5 3 9 12 10 8 10 9 6 6 7 4 6 5 4 4 5 8 7 5 4 4 4 5 6 6 6 6 6 8 8 9 12 15 16 11 10 10 11 11 12 11 11 13 11 10 14 14 17 16 19 16 16 16
6 4 8 11 9 9 9 9 8 9 10 10 9 12 9 7 8 7 6 4 4 4 6 6 7 8 9 9 8 10 7 8 9 9 10 12 12 12 12 12 13 12 12 13 14 16 13 15 16 15 16 15 15 16
3 6 9 9 8 10 13 14 15 16 16 16 14 14 10 6 5 5 5 3 3 5 7 9 8 8 9 9 9 9 9 8 9 11 11 10 11 12 12 13 12 12 12 15 15 16 16 16 16 18 19 22 23 21
5 7 9 8 9 13 11 9 9 12 13 12 12 10 7 3 4 2 2 4 5 6 7 9 9 9 9 9 8 8 5 10 9 10 14 11 12 13 14 14 13 12 14 16 16 16 19 20 17 19 20 24 25 25
9 7 7 9 9 11 10 9 6 5 4 4 3 3 4 3 4 2 2 3 5 6 8 9 8 7 8 8 9 8 8 10 11 7 5 6 9 9 12 12 12 14 17 16 17 17 20 24 21 24 24 24 25 25
Wind_Direction
250 252 257 270 280 289 293 298 303 307 310 316 322 333 324 323 308 274 322 221 297 304 117 219 202 250 183 255 320 50 234 184 233 258 301 4 285 132 252 32 284 267 269 202 277 247 222 62 192 295 58 114 233 219
246 247 254 268 279 286 290 296 299 302 304 314 317 329 320 320 300 253 263 182 213 264 15 280 277 290 290 336 308 163 341 325 351 326 72 314 293 276 324 233 159 241 345 3 348 39 104 65 49 96 196 259 217 285
242 243 252 265 277 283 287 290 295 300 304 312 314 323 314 312 284 242 302 303 224 267 203 213 178 148 238 239 279 301 144 6 187 342 292 145 228 271 241 197 147 138 150 170 192 135 128 132 155 237 233 253 203 232
239 242 255 267 275 280 283 290 294 298 302 311 310 315 306 300 275 227 248 43 268 288 280 108 149 173 140 197 200 254 337 105 119 232 265 270 266 238 2 8 290 34 193 154 104 132 157 164 294 305 211 209 206 194
238 244 259 269 274 277 283 289 293 295 303 305 312 311 302 299 273 240 250 244 252 299 333 57 157 145 176 191 181 171 182 222 201 201 246 59 66 246 85 271 185 199 133 235 76 119 320 65 38 181 230 213 235 244
237 251 265 271 275 279 284 291 292 295 303 303 314 304 306 289 242 236 235 171 213 216 272 249 92 165 164 181 173 173 165 213 256 293 88 115 82 276 246 290 89 135 150 58 133 142 44 45 270 250 252 249 250 256
246 262 268 274 279 282 287 290 293 297 302 310 304 303 294 258 230 252 350 36 188 216 248 248 196 151 182 180 189 189 192 203 290 124 202 181 168 250 277 287 141 159 152 168 181 179 226 227 294 268 250 258 243 261
247 257 265 269 274 279 287 288 294 304 309 309 301 303 286 217 272 269 179 195 240 260 252 264 215 192 185 203 199 198 210 201 138 69 185 235 158 242 252 127 177 200 218 234 226 222 271 294 273 282 279 278 270 265
248 258 261 266 271 283 284 293 306 305 309 300 306 258 180 222 221 64 118 129 220 294 287 240 271 183 178 182 117 176 258 232 115 228 153 249 175 242 68 168 193 200 281 352 261 255 254 272 290 282 289 275 266 271
245 252 263 270 281 283 292 301 303 310 301 300 190 217 190 125 120 140 163 176 195 195 223 261 334 252 255 167 138 250 206 292 211 181 222 246 121 65 124 19 1 40 241 250 275 287 325 318 326 318 313 329 295 307
262 267 272 280 282 288 296 297 309 317 29 227 214 224 67 134 205 212 201 222 168 224 190 234 277 268 126 273 20 286 338 318 253 125 272 206 183 160 149 130 120 124 232 283 306 310 302 306 305 306 308 316 313 311
268 274 278 279 283 290 291 300 300 269 314 340 340 261 194 209 210 217 198 172 225 247 146 216 125 344 117 276 262 166 272 229 337 108 264 297 95 154 170 178 173 214 267 284 285 308 318 321 323 313 307 305 303 298
280 282 280 283 294 294 291 280 263 266 276 204 225 205 203 153 131 214 191 177 213 164 160 169 164 249 162 228 234 238 225 333 159 230 345 37 74 161 178 204 229 246 284 290 295 300 309 310 309 303 299 294 294 286
283 287 299 301 292 284 272 265 255 190 235 222 185 17 220 181 226 218 249 43 69 128 129 168 128 275 145 215 301 229 82 225 255 9 94 39 21 217 198 233 259 294 318 302 308 301 305 305 307 302 297 293 290 288
304 306 300 291 244 242 249 244 193 207 246 240 218 181 189 73 84 92 90 131 99 81 218 175 157 263 194 218 224 83 199 210 9 48 53 46 16 344 296 302 302 307 318 323 319 313 306 307 309 308 322 321 304 297
321 303 205 156 225 253 216 151 179 224 232 232 186 161 128 163 130 141 128 107 88 113 202 240 188 223 172 284 202 164 315 329 54 49 53 56 33 22 7 351 343 339 332 326 323 329 326 323 321 312 308 321 324 327
305 245 134 62 335 62 175 215 195 208 232 176 110 110 71 82 93 86 60 63 141 242 216 217 215 87 120 181 95 333 39 46 56 75 59 42 21 8 358 353 350 347 346 350 350 356 352 350 350 356 354 353 344 344
242 133 103 35 309 146 186 225 228 208 117 111 147 117 87 82 112 100 83 71 265 143 221 54 116 206 14 24 79 94 85 77 56 43 49 34 24 16 9 9 12 14 13 9 2 353 358 353 346 349 342 347 333 331
300 313 307 297 253 246 176 156 260 106 71 102 111 103 88 95 78 78 67 80 38 12 185 217 104 35 56 30 21 50 44 27 19 35 86 52 30 32 15 18 18 13 6 7 8 2 353 348 1 359 352 352 342 339
252 256 264 258 208 205 154 105 241 113 143 101 127 120 95 74 89 76 72 49 27 43 35 38 31 29 40 37 36 41 26 26 17 14 21 38 22 21 27 14 9 4 3 13 10 19 357 359 356 354 343 329 320 311
162 103 136 199 172 245 63 105 88 47 125 118 116 148 105 134 83 58 43 70 45 34 50 40 69 55 46 39 27 39 45 34 46 34 27 18 25 29 28 23 18 19 15 14 2 353 350 341 331 328 310 305 309 314
69 267 197 195 169 94 84 33 57 108 151 116 144 158 134 114 92 76 62 58 63 40 30 44 45 50 50 42 39 39 41 46 32 38 34 38 33 25 28 23 4 0 353 357 345 329 322 319 327 339 336 345 346 340
268 225 125 49 86 65 118 242 160 133 150 139 162 132 121 88 82 115 84 60 50 344 12 74 69 52 56 49 48 41 41 47 47 39 33 29 24 21 7 354 343 338 356 353 338 337 342 347 346 338 332 336 334 330
187 43 41 55 83 111 165 129 126 115 135 162 139 124 94 92 108 81 72 59 2 355 34 30 47 61 55 48 47 39 34 34 35 33 21 11 4 358 353 350 355 358 5 345 343 344 342 339 331 330 332 332 335 335
66 0 53 348 148 169 142 132 134 150 133 117 120 114 98 126 73 59 65 40 21 26 50 59 55 52 50 48 39 34 22 14 17 10 6 4 352 350 358 353 354 358 1 342 341 344 343 341 342 343 339 341 343 339
74 38 62 91 113 141 112 124 113 119 117 88 75 94 78 64 69 66 66 43 44 46 47 48 48 50 48 38 27 18 7 3 355 4 3 356 355 353 349 348 348 349 358 337 344 345 344 347 346 343 343 341 344 337
75 79 83 42 82 122 107 90 90 83 68 70 69 51 70 69 73 77 89 48 78 62 52 52 49 41 29 18 13 3 358 2 5 349 346 350 358 359 358 349 346 359 334 344 346 342 341 343 340 339 341 341 345 343
51 17 90 91 82 64 84 67 57 46 57 41 71 46 63 60 80 84 90 76 73 75 68 61 45 32 14 2 352 351 4 0 356 352 350 358 3 9 359 347 348 314 319 345 341 336 339 338 335 335 332 332 334 333
59 65 100 90 76 61 32 20 43 45 350 23 86 90 87 53 73 98 88 90 85 75 55 38 19 2 4 3 9 9 6 359 356 355 357 353 350 358 349 343 338 332 333 333 334 326 334 326 319 325 325 330 331 333
52 58 94 59 49 52 34 17 63 57 55 79 96 99 88 81 76 85 92 88 67 45 28 14 7 7 2 357 358 1 15 15 14 357 350 344 340 337 337 336 332 332 335 332 331 330 325 325 331 330 332 335 330 338
83 85 79 74 75 75 85 80 78 77 81 88 96 98 99 107 99 86 64 37 58 35 17 6 4 12 -0 356 360 349 354 358 359 352 351 334 333 334 336 332 325 328 330 329 328 326 328 332 331 331 334 331 333 333
63 96 101 106 121 163 133 60 72 98 105 104 106 110 116 100 91 92 332 23 28 18 19 359 356 4 3 346 357 347 346 325 337 350 337 335 332 332 332 321 323 328 327 324 325 325 329 329 328 333 329 329 328 327
79 83 101 115 135 175 153 139 114 135 119 89 76 69 70 61 77 78 183 59 30 7 1 356 348 352 349 341 342 334 329 332 337 293 262 275 295 309 312 323 326 324 323 327 325 327 327 329 332 328 327 325 323 323